Reno, NV

4:09 PM PST on February 27, 2017 (GMT -0800)
Reno-Tahoe International

Weather History for KRNO - September, 2012

Change the Weather History Date:

Tuesday, September 18, 2012

  Actual Average Record
Temperature  
Mean Temperature 70 °F 65 °F  
Max Temperature 89 °F 81 °F 93 °F (1991)
Min Temperature 50 °F 48 °F 20 °F (1965)
Degree Days  
Heating Degree Days 0 3  
Month to date heating degree days 0 30  
Since 1 July heating degree days 0 40  
Cooling Degree Days 5 2  
Month to date cooling degree days 128 69  
Year to date cooling degree days 1204 815  
Growing Degree Days 20 (Base 50)    
Moisture  
Dew Point 30 °F    
Average Humidity 30    
Maximum Humidity 50    
Minimum Humidity 10    
Precipitation  
Precipitation 0.00 in 0.01 in 0.59 in (1989)
Month to date precipitation 0.01 0.16  
Year to date precipitation 2.66 4.85  
Snow  
Snow 0.00 in 0.00 in 0.00 in ()
Month to date snowfall 0.0 0.0  
Since 1 July snowfall 0.0 0.0  
Since 1 September snowfall 0.0 0.0  
Snow Depth 0.00 in    
Sea Level Pressure  
Sea Level Pressure 30.04 in    
Wind  
Wind Speed 3 mph (NE)    
Max Wind Speed 16 mph    
Max Gust Speed 20 mph    
Visibility 10 miles    
Events      
T = Trace of Precipitation, MM = Missing Value Source: NWS Daily Summary

Daily Weather History Graph

Daily Weather History Graph

Search for Another Location

Airport or City:

Trip Planner

Search our weather history database for the weather conditions in past years. The results will help you decide how hot, cold, wet, or windy it might be!

Date:

Astronomy

Sep. 18, 2012 Rise Set
Actual Time 6:43 AM PDT 7:01 PM PDT
Civil Twilight 6:16 AM PDT 7:28 PM PDT
Nautical Twilight 5:45 AM PDT 8:00 PM PDT
Astronomical Twilight 5:12 AM PDT 8:32 PM PDT
Moon 9:48 AM PDT (9/18) 8:29 PM PDT (9/18)
Length of Visible Light 13h 11m
Length of Day
12h 18m
Waxing Crescent, 10% of the Moon is Illuminated
Sep 18
Waxing Crescent
Sep 22
First Quarter
Sep 29
Full
Oct 8
Last Quarter
Oct 15
New

Hourly Weather History & Observations

Time (PDT) Temp. Dew Point Humidity Pressure Visibility Wind Dir Wind Speed Gust Speed Precip Events Conditions
12:55 AM 62.1 °F 30.0 °F 30% 30.03 in 10.0 mi Calm Calm - N/A   Clear
1:55 AM 60.1 °F 30.9 °F 33% 30.03 in 10.0 mi Calm Calm - N/A   Clear
2:55 AM 57.9 °F 30.9 °F 36% 30.03 in 10.0 mi Calm Calm - N/A   Clear
3:55 AM 55.0 °F 32.0 °F 42% 30.04 in 10.0 mi Calm Calm - N/A   Clear
4:55 AM 54.0 °F 33.1 °F 45% 30.04 in 10.0 mi Calm Calm - N/A   Clear
5:55 AM 52.0 °F 33.1 °F 49% 30.06 in 10.0 mi South 4.6 mph - N/A   Clear
6:55 AM 52.0 °F 32.0 °F 47% 30.09 in 10.0 mi Calm Calm - N/A   Clear
7:55 AM 55.9 °F 33.1 °F 42% 30.11 in 10.0 mi Calm Calm - N/A   Clear
8:55 AM 61.0 °F 33.1 °F 35% 30.11 in 10.0 mi Calm Calm - N/A   Clear
9:55 AM 66.9 °F 30.0 °F 25% 30.11 in 10.0 mi Calm Calm - N/A   Clear
10:55 AM 73.9 °F 28.9 °F 19% 30.09 in 10.0 mi SW 3.5 mph - N/A   Clear
11:55 AM 79.0 °F 24.1 °F 13% 30.06 in 10.0 mi Calm Calm - N/A   Clear
12:55 PM 84.0 °F 24.1 °F 11% 30.04 in 10.0 mi ESE 4.6 mph - N/A   Partly Cloudy
1:55 PM 84.9 °F 25.0 °F 11% 30.01 in 10.0 mi South 5.8 mph - N/A   Partly Cloudy
2:55 PM 86.0 °F 24.1 °F 10% 29.99 in 10.0 mi North 4.6 mph - N/A   Partly Cloudy
3:55 PM 88.0 °F 24.1 °F 10% 29.97 in 10.0 mi ENE 6.9 mph - N/A   Partly Cloudy
4:55 PM 86.0 °F 24.1 °F 10% 29.97 in 10.0 mi Calm Calm - N/A   Partly Cloudy
5:55 PM 86.0 °F 24.1 °F 10% 29.96 in 10.0 mi NE 4.6 mph - N/A   Partly Cloudy
6:55 PM 84.0 °F 25.0 °F 12% 29.98 in 10.0 mi NNE 3.5 mph - N/A   Partly Cloudy
7:55 PM 80.1 °F 36.0 °F 20% 30.01 in 10.0 mi WNW 10.4 mph - N/A   Clear
8:55 PM 77.0 °F 35.1 °F 22% 30.03 in 10.0 mi NW 8.1 mph - N/A   Clear
9:55 PM 73.9 °F 35.1 °F 24% 30.04 in 10.0 mi East 3.5 mph - N/A   Clear
10:55 PM 70.0 °F 33.1 °F 26% 30.04 in 10.0 mi North 4.6 mph - N/A   Clear
11:55 PM 68.0 °F 35.1 °F 30% 30.06 in 10.0 mi Calm Calm - N/A   Clear